Regional Weather Roundup
Issued by NWS

Home | Current Version | Previous Version | Graphics & Text | Print | Product List | Glossary On
Versions: 1 2 3 4 5 6 7 8 9 10 11 12 13 14 15 16 17 18 19 20 21 22 23 24 25 26 27 28 29 30 31 32 33 34 35 36 37 38 39 40 41 42 43 44 45 46 47 48 49 50
000
ASUS43 KMPX 240201
RWRMN
WEATHER ROUNDUP FOR MINNESOTA
NATIONAL WEATHER SERVICE TWIN CITIES/CHANHASSEN MN
800 PM CST FRI FEB 23 2018


NOTE: "FAIR" INDICATES FEW OR NO CLOUDS BELOW 12,000 FEET WITH NO
SIGNIFICANT WEATHER AND/OR OBSTRUCTIONS TO VISIBILITY. N/A MEANS
CURRENT SKY AND/OR WEATHER CONDITIONS ARE NOT AVAILABLE.

MNZ060>063-068>070-240300-
   Twin Cities Metro

CITY           SKY/WX    TMP DP  RH WIND       PRES   REMARKS
TWIN CITIES    FAIR      23  19  85 SW6       30.29R WCI  16
ST PAUL        FAIR      23  18  81 SW3       30.30R
CRYSTAL        FAIR      23  17  78 W7        30.27R WCI  15
BLAINE         CLEAR     27  21  80 W6        30.27R WCI  20
LAKEVILLE      FAIR      18  18 100 W7        30.28S WCI   8
EDEN PRAIRIE   FAIR      20  16  84 W7        30.28R WCI  11
SOUTH ST PAUL  FAIR      23  19  83 W6        30.29R WCI  16
LAKE ELMO      FAIR      23  19  86 SW6       30.28R WCI  16
$$
MNZ001>005-007-008-013>017-022>024-027-028-240300-
   Northwest Minnesota

CITY           SKY/WX    TMP DP  RH WIND       PRES   REMARKS
BEMIDJI        FAIR      10   3  72 SW6       30.19S WCI   1
HALLOCK        FAIR       3   1  92 S6        30.19S WCI  -8
ROSEAU         FAIR       9   3  78 SW7       30.18S WCI  -3
WARROAD        FAIR      10   5  79 SW7       30.17S WCI   0
THIEF RVR FALL FAIR       4   1  88 SW8       30.21S WCI  -9
CROOKSTON      FAIR       3   0  85 SW9       30.25R WCI -11
FOSSTON        FAIR       0  -4  85 S9        30.23R WCI -16
DETROIT LAKES  FAIR       9   5  85 SW5       30.25R WCI   0
MOORHEAD       FAIR       7   1  78 S7        30.29S WCI  -5
PARK RAPIDS    FAIR       2  -4  76 W5        30.21R WCI  -8
MAHNOMEN       FAIR       1  -2  86 SW8       30.23S WCI -13
$$
MNZ006-009>011-018-025>026-240300-
   North Central Minnesota

CITY           SKY/WX    TMP DP  RH WIND       PRES   REMARKS
BAUDETTE       FAIR      12   4  70 W7        30.15R WCI   1
FLAG ISLAND    FAIR      16   1  53 W7        30.13S WCI   6
INTL FALLS     FAIR      19   7  59 W8G17     30.14R WCI   9
WASKISH        FAIR       7   3  85 SW13      30.19R WCI  -9
LONGVILLE      FAIR      18   9  68 SW6       30.21R WCI   9
GRAND RAPIDS   FAIR      20  13  74 W8        30.20R WCI  10
CRANE LAKE     FAIR      18  16  93 CALM      30.17R
ORR            FAIR      19   7  58 W10G16    30.13R WCI   8
COOK             N/A     21  16  79 W7        30.15R WCI  13
WALKER         FAIR      16   5  63 SW7       30.20R WCI   6
$$
MNZ012-019>021-037-240300-
   Northeast Minnesota

CITY           SKY/WX    TMP DP  RH WIND       PRES   REMARKS
DULUTH         CLOUDY    29  20  69 W8        30.16R WCI  21
ELY            FAIR      23  19  86 CALM      30.13R
HIBBING        MOCLDY    19  16  88 SW3       30.16R
EVELETH        FAIR      25  19  80 SW7       30.16R WCI  17
DULUTH HARBOR  CLOUDY    32  25  74 SW5       30.21R WCI  27
TWO HARBORS    CLOUDY    30  23  74 W3        30.16R
SILVER BAY     CLOUDY    28  23  80 SW6       30.14R WCI  22
GRAND MARAIS     N/A     28  20  71 W5        30.16R WCI  23
G MARAIS ARPRT CLOUDY    21  16  79 CALM      30.10R
$$
MNZ029>031-032-039>041-046>048-054>057-064-240300-
   West Central Minnesota

CITY           SKY/WX    TMP DP  RH WIND       PRES   REMARKS
FERGUS FALLS   FAIR       5   1  85 CALM      30.30R
WHEATON        CLOUDY     5   1  85 CALM      30.33S
MORRIS         CLOUDY     3   1  92 CALM      30.29S
ALEXANDRIA     FAIR       8   4  83 W6        30.27R WCI  -2
ELBOW LAKE     FAIR       0  -2  91 SW5       30.29S WCI -10
WADENA         FAIR       9   3  78 SW6       30.24S WCI  -1
GLENWOOD       FAIR       9   3  78 W10       30.28S WCI  -6
APPLETON       CLOUDY     9   7  92 NW3       30.31S
BENSON         CLOUDY     1   0  92 N3        30.31F FOG
MADISON        CLOUDY    10   7  85 W5        30.32R WCI   2
WILLMAR        FAIR       9   7  92 NW8       30.31S WCI  -4
$$
MNZ033>034-036-042>043-049>051-058-059-240300-
   Central Minnesota

CITY           SKY/WX    TMP DP  RH WIND       PRES   REMARKS
ST CLOUD       FAIR      18  14  84 W6        30.27R WCI  10
SAUK CENTRE    FAIR       6   3  87 W8        30.28S WCI  -7
PAYNESVILLE    FAIR       8   6  95 W6        30.29S WCI  -2
AITKIN         FAIR      23  16  74 SW7       30.21R WCI  15
PINE RIVER     FAIR      16   9  73 CALM      30.26R
BRAINERD       FAIR      19   9  65 W9        30.24R WCI   8
STAPLES        FAIR       7   3  85 W7        30.25R WCI  -5
LONG PRAIRIE   FAIR      10   9  92 SW5       30.27S WCI   2
LITTLE FALLS   FAIR      18   9  68 W3        30.28R
LITCHFIELD     FAIR      16  12  86 W6        30.29S WCI   7
BUFFALO        FAIR      19  15  84 W7        30.29S WCI  10
MAPLE LAKE     FAIR      18  16  90 W6        30.28F WCI  10
HUTCHINSON     FAIR      13  11  95 W5        30.31S WCI   5
$$
MNZ037-044-045-052-053-240300-
   East Central Minnesota

CITY           SKY/WX    TMP DP  RH WIND       PRES   REMARKS
PRINCETON      FAIR      21  18  86 SW7       30.26S WCI  13
CAMBRIDGE      FAIR      27  18  69 W6        30.26S WCI  20
RUSH CITY      FAIR      25  20  79 W6        30.25R WCI  18
MOOSE LAKE     CLOUDY    30  21  69 W3        30.19R
HINCKLEY       FAIR      27  21  80 SW6       30.23R WCI  20
CLOQUET        CLOUDY    28  19  69 W7        30.18R WCI  21
MCGREGOR       FAIR      28  21  74 SW6       30.21R WCI  22
$$
MNZ071>073-080-081-089-090-097-098-240300-
   Southwest Minnesota

CITY           SKY/WX    TMP DP  RH WIND       PRES   REMARKS
MONTEVIDEO     CLOUDY    12   7  79 N5        30.31S WCI   4
GRANITE FALLS  FOG        3   0  87 W6        30.33R VSB 1   WCI  -8
CANBY          CLOUDY    15  13  90 SW6       30.31S WCI   6
MARSHALL       CLOUDY    11   8  88 W7        30.31R WCI   0
REDWOOD FALLS  CLEAR     18  15  88 W7        30.31S WCI   9
OLIVIA         CLEAR     16  12  86 NW5       30.30S WCI   9
PIPESTONE      FOG       16  16 100 NW8       30.27S VSB 1   WCI   5
WORTHINGTON    CLOUDY    19  17  92 W10       30.28S WCI   7
JACKSON        CLOUDY    18  14  86 NW8       30.28S WCI   7
TRACY          CLEAR     17  16  94 W7        30.29S WCI   8
SLAYTON        CLOUDY    17  16  95 W12       30.28S FOG     WCI   4
$$
MNZ065>067-074>077-082>085-091>093-240300-
   South Central Minnesota

CITY           SKY/WX    TMP DP  RH WIND       PRES   REMARKS
MANKATO        FAIR      19  17  92 W7        30.31S WCI  10
NEW ULM          N/A     12  10  92 W7        30.31S FOG     WCI   2
ST JAMES       FOG        9   7  92 NW3       30.31F VSB<1/4
FAIRMONT       FOG       10   6  84 N6        30.30R VSB 1/2 WCI   0
GLENCOE        FAIR      18  16  92 W6        30.29S WCI   9
FARIBAULT      FAIR      18  18 100 W5        30.29S WCI  11
OWATONNA       FAIR       9   7  92 W3        30.28S FOG
WASECA           N/A     14  12  92 W3        30.31S FOG
ALBERT LEA     FAIR      18  16  93 CALM      30.28S
$$
MNZ078>079-086>088-094>096-240300-
   Southeast Minnesota

CITY           SKY/WX    TMP DP  RH WIND       PRES   REMARKS
ROCHESTER      FAIR      15  14  95 W5        30.26S FOG     WCI   8
RED WING       FAIR      21  16  79 W3        30.28F
STANTON        FAIR      14  12  90 SW7       30.28F FOG     WCI   4
DODGE CENTER   FAIR      18  16  93 W6        30.26S WCI   9
WINONA         FAIR      23  19  86 CALM      30.29S
AUSTIN         FAIR      18  16  93 NW3       30.28S
PRESTON        FAIR      19  16  89 NW7       30.27F WCI   9
$$
ABBREVIATIONS USED IN REMARKS
   TC - TEMPERATURES IN CELSIUS
  WCI - WIND CHILL INDEX
   HX - HEAT INDEX
  VSB - VISIBILITY
$$



USA.gov is the U.S. government's official web portal to all federal, state and local government web resources and services.